CSC8001 ZSPD-ZSHC

Flight info

Callsign CSC8001
Flight time N/A
Altitude 28100
Route AND B221 OKTUG
Aircraft A346/H-SDE2E3FGILRWXY/LB2

Departure

Time 2026-04-30 15:18
Airport Shanghai Pudong International Airport (ZSPD)

Arrival

Time N/A
Airport Hangzhou Xiaoshan International Airport (ZSHC)
Time Latitude Longitude Altitude Speed Heading
2026-04-30 14:45 31.13243 121.78731 32 ft 0 kts 251°
2026-04-30 14:57 31.13244 121.78735 32 ft 2 kts 251°
2026-04-30 14:58 31.13254 121.78768 32 ft 2 kts 253°
2026-04-30 14:58 31.13257 121.78786 32 ft 2 kts 268°
2026-04-30 14:58 31.13253 121.78819 32 ft 2 kts 290°
2026-04-30 14:59 31.13238 121.78850 32 ft 2 kts 312°
2026-04-30 15:00 31.13205 121.78876 32 ft 0 kts 342°
2026-04-30 15:00 31.13202 121.78876 32 ft 0 kts 343°
2026-04-30 15:02 31.13203 121.78876 32 ft 0 kts 343°
2026-04-30 15:02 31.13211 121.78873 32 ft 2 kts 343°
2026-04-30 15:03 31.13217 121.78871 32 ft 0 kts 343°
2026-04-30 15:05 31.13334 121.78826 32 ft 11 kts 341°
2026-04-30 15:06 31.13532 121.78752 32 ft 17 kts 342°
2026-04-30 15:06 31.13793 121.78654 32 ft 21 kts 342°
2026-04-30 15:07 31.14107 121.78534 32 ft 25 kts 342°
2026-04-30 15:07 31.14395 121.78426 32 ft 18 kts 342°
2026-04-30 15:08 31.14667 121.78323 32 ft 22 kts 342°
2026-04-30 15:08 31.15161 121.78136 32 ft 21 kts 342°
2026-04-30 15:09 31.15378 121.78069 32 ft 9 kts 32°
2026-04-30 15:09 31.15423 121.78168 32 ft 0 kts 72°
2026-04-30 15:11 31.15429 121.78190 32 ft 7 kts 72°
2026-04-30 15:11 31.15490 121.78410 32 ft 17 kts 72°
2026-04-30 15:12 31.15557 121.78648 32 ft 0 kts 72°
2026-04-30 15:14 31.15571 121.78699 32 ft 9 kts 72°
2026-04-30 15:14 31.15659 121.78982 32 ft 13 kts 352°
2026-04-30 15:16 31.16146 121.78770 32 ft 7 kts 282°
2026-04-30 15:17 31.16040 121.78625 32 ft 0 kts 160°
2026-04-30 15:18 31.12726 121.79877 1087 ft 176 kts 161°
2026-04-30 15:19 31.09178 121.80962 3202 ft 190 kts 192°